STARLINK-35559, 66095

Orbit data source: Space-Track

STARLINK-35559, 66095 is a payload satellite owned by SpaceX/Seattle (US) in LEO that was launched on Sun, 19 Oct 2025 UTC via an FALCON 9 launch vehicle from the Air Force Western Test Range (AFWTR). Payload-class satellites include a variety of spacecraft equipped with specific instruments for various scientific and technological missions. These include communications satellites like Starlink; space stations such as the ISS; scientific satellites like the Hubble; Earth observation satellites from companies like Planet Labs, Umbra, and HawkEye 360; GPS; miniature CubeSats for education and research; and military/defense satellites.

Loading next visibility...
Identifier
66095, 2025-236K
Orbit
LEO
Country
Flag of USUS
Related business
Manufacturer
SpaceX/Seattle
Mission
Operational Commercial Communications
Bus & Motor
STARLINK V2MO, Unknown motor
Mass
575 kg wet, ~530 kg dry
Launch date (UTC)
2025-10-19 (6 months ago)
Launch vehicle
FALCON 9
Launch site
Air Force Western Test Range (AFWTR)
Object type
Payload
Rocket body
Debris
Shape & HBR
Box + 2 Pan, 17.7 m
Radar Cross Section
36.964 m²

Expand to show TLE details & history
Last TLE update: 13 hours ago

TLE from 13 hours ago
0 STARLINK-35559
1 66095U 25236K   26095.11961369  .00034375  00000-0  11693-2 0  9996
2 66095  53.1584 340.9311 0000903 105.9691 254.1409 15.30146772 26995
Epoch: 2026-04-05T02:52Z
TLE epoch observation values (Epoch: 2026-04-05T02:52:14.622Z)
Latitude
-0.00006°
Longitude
104.44052°
Altitude
476.443 km
Speed
7.629 km/s
True Right ascension
22h 43m 43s
True Declination
0° 00' 00"
Sunlit
Object was in daylight at epoch
Visualization orbit readout
Latitude
Unknown
Longitude
Unknown
Altitude
Unknown
Speed
Unknown
Apparent Right ascension
Unknown
Apparent Declination
Unknown
Sunlit
N/A
Visualization observer readout
Local Sidereal Time
21:53:45
Azimuth
Unknown
Elevation
Unknown
Doppler factor
Unknown
Orbital elements
Apogee altitude
476.25 km
Perigee altitude
475.012 km
Semi-major axis
6,853.768 km
Eccentricity
0.00009
Inclination
53.1584°
RAAN
340.9311°
Arg. of periapsis
105.9691°
True anomaly
254.13095°
Mean anomaly
254.1409°
Eccentric anomaly
254.13592°
Mean motion
3.82516 °/min
Orbital period
94.11 mins
BSTAR
0.0011693
Loading maneuver chart data...
Computing Atmospheric mass density...
Loading historical data...
Loading historical data...
Loading historical data...
Loading historical data...
Loading historical data...
Loading historical data...
Loading historical data...

Documentation

Showing up to 5 results
|